ONEWEB-0687, 61595

Orbit data source: Space-Track

ONEWEB-0687, 61595 is a payload satellite owned by Eut. One Web (UK) in LEO that was launched on Sun, 20 Oct 2024 UTC via an FALCON 9 launch vehicle from the Air Force Western Test Range (AFWTR). Payload-class satellites include a variety of spacecraft equipped with specific instruments for various scientific and technological missions. These include communications satellites like Starlink; space stations such as the ISS; scientific satellites like the Hubble; Earth observation satellites from companies like Planet Labs, Umbra, and HawkEye 360; GPS; miniature CubeSats for education and research; and military/defense satellites.

Loading next visibility...
Identifier
61595, 2024-188B
Orbit
LEO
Country
Flag of UKUK
Related business
Manufacturer
One Web
Mission
Operational Commercial Communications
Bus & Motor
ARROW, Unknown motor
Mass
148 kg wet, ~140 kg dry
Launch date (UTC)
2024-10-20 (1 year ago)
Launch vehicle
FALCON 9
Launch site
Air Force Western Test Range (AFWTR)
Object type
Payload
Rocket body
Debris
Shape & HBR
Trap Box + 2 Pan, 6.7 m
Radar Cross Section
3.464 m², Large (>1 m²)

Expand to show TLE details & history
Last TLE update: 1 day ago

TLE from 1 day ago
0 ONEWEB-0687
1 61595U 24188B   25306.33350098  .00000009  00000-0 -88835-5 0  9993
2 61595  87.9109  51.0128 0001517  81.0132 279.1171 13.17651564 56028
Epoch: 2025-11-02T08:00Z
TLE epoch observation values (Epoch: 2025-11-02T08:00:14.484Z)
Latitude
-0.00005°
Longitude
-110.89828°
Altitude
1,196.42 km
Speed
7.256 km/s
True Right ascension
03h 24m 03s
True Declination
0° 00' 00"
Sunlit
Object was in full shadow at epoch
Visualization orbit readout
Latitude
Unknown
Longitude
Unknown
Altitude
Unknown
Speed
Unknown
Apparent Right ascension
Unknown
Apparent Declination
Unknown
Sunlit
N/A
Visualization observer readout
Local Sidereal Time
05:30:49
Azimuth
Unknown
Elevation
Unknown
Doppler factor
Unknown
Orbital elements
Apogee altitude
1,191.96 km
Perigee altitude
1,189.664 km
Semi-major axis
7,568.949 km
Eccentricity
0.00015
Inclination
87.9109°
RAAN
51.0128°
Arg. of periapsis
81.0132°
True anomaly
279.09994°
Mean anomaly
279.1171°
Eccentric anomaly
279.10852°
Mean motion
3.29602 °/min
Orbital period
109.22 mins
BSTAR
-0.0000088835
Loading maneuver chart data...
Computing Atmospheric mass density...
Loading historical data...
Loading historical data...
Loading historical data...
Loading historical data...
Loading historical data...
Loading historical data...
Loading historical data...

Documentation

Showing up to 5 results
|